Temperature
23 21 21 21 21 21 20 20 20 20 19 19 18 18 18 18 18 18 18 18 18 17 18 17 17 17 17 17 17 17 17 17 17 17 17 18 18 18 17 17 17 17 17
23 21 21 21 21 21 21 20 20 20 19 19 19 19 18 18 18 18 18 18 18 18 17 17 17 17 17 17 17 17 17 17 17 17 18 18 18 18 18 17 17 17 17
23 22 21 21 21 21 21 20 20 20 20 19 19 18 18 18 18 18 18 18 18 18 18 17 17 17 17 17 17 17 17 17 17 17 18 18 19 19 18 18 18 17 17
24 23 22 21 21 21 20 20 20 20 20 19 19 18 18 18 18 18 18 18 18 18 18 18 17 17 17 17 17 17 17 17 17 17 17 17 18 18 19 18 18 17 17
24 23 22 21 21 21 20 20 20 20 19 19 19 18 18 18 18 18 18 18 18 18 17 17 17 17 17 17 17 17 17 17 17 17 17 17 17 17 18 18 18 18 18
24 23 22 21 21 20 20 20 20 20 19 19 19 18 18 18 18 18 18 18 18 18 18 18 18 18 17 17 17 17 17 17 17 17 17 17 17 17 18 18 18 18 18
23 22 21 21 21 20 20 20 20 20 19 19 18 18 18 18 18 18 17 18 18 17 17 17 18 17 17 17 17 17 17 17 17 17 17 17 17 17 17 18 18 18 18
23 22 21 21 21 20 20 20 19 19 19 19 18 18 18 18 17 18 17 17 17 17 17 17 18 18 17 17 17 17 17 17 17 17 17 17 17 17 17 17 17 17 18
23 22 21 21 20 20 20 20 19 19 19 18 18 18 18 18 17 17 17 17 17 17 17 17 17 17 17 17 17 17 17 17 17 17 17 17 17 17 17 17 17 17 17
23 22 21 21 20 20 19 19 19 19 19 18 18 18 18 18 18 17 17 17 17 17 17 17 17 17 17 17 17 17 17 17 17 17 17 16 16 16 16 16 17 17 17
23 22 21 20 20 19 19 19 19 18 18 18 18 18 17 17 17 17 17 17 17 17 17 17 17 17 17 17 16 16 16 16 16 16 16 16 16 16 16 16 16 16 16
22 21 20 20 19 19 19 18 18 18 18 18 18 18 18 17 17 17 17 17 17 17 17 17 16 16 16 16 16 16 16 16 16 16 16 16 16 16 16 16 16 16 16
21 21 20 19 19 18 18 18 18 18 18 18 18 17 17 17 17 17 17 17 17 16 16 16 16 16 16 16 16 16 16 16 15 16 15 15 15 15 15 15 15 15 15
21 20 19 19 18 18 18 18 18 17 17 17 17 17 17 17 17 16 16 16 16 16 16 15 15 15 15 15 15 15 15 15 15 15 15 15 15 15 15 15 15 15 15
21 20 19 18 18 18 18 18 17 17 17 17 17 17 17 16 16 16 16 16 16 15 15 15 15 15 15 15 15 15 14 14 14 14 14 14 14 14 14 14 14 14 14
20 19 19 18 18 18 17 17 17 17 17 17 16 16 16 16 16 16 15 15 15 15 15 15 15 14 14 14 14 14 14 14 14 14 14 14 14 14 14 14 14 14 13
20 19 18 18 17 17 17 17 17 17 17 16 16 16 16 15 15 15 15 15 15 15 14 14 14 14 14 14 14 14 14 13 13 13 13 13 13 13 13 13 13 13 13
20 19 18 17 17 17 17 17 16 16 16 16 15 15 15 15 15 15 15 15 14 14 14 14 13 13 13 13 13 13 13 13 13 13 13 13 13 12 12 12 12 12 12
19 18 18 17 17 17 17 16 16 16 16 15 15 15 15 15 15 15 14 14 14 14 13 13 13 13 13 13 13 13 13 12 12 12 12 12 12 12 12 12 12 11 11
18 17 17 17 17 17 16 16 16 15 15 15 15 15 15 15 14 14 14 14 13 13 13 13 12 12 12 12 12 12 12 12 12 12 11 11 12 12 11 11 11 11 10
17 17 17 17 16 16 16 16 15 15 15 15 15 15 15 14 14 14 13 13 13 12 12 12 12 12 12 12 12 12 11 11 11 11 11 11 11 11 11 11 10 10 10
16 16 16 16 16 16 16 15 15 15 15 15 14 14 14 14 13 13 13 12 12 12 11 11 11 11 11 11 11 11 11 11 11 10 10 10 10 10 10 10 10 9 9
16 16 16 16 15 15 15 15 15 15 14 14 14 14 13 13 13 12 12 12 11 11 11 11 11 10 10 10 11 11 11 11 10 10 10 10 9 9 9 9 9 9 9
15 15 15 15 15 15 14 15 14 14 14 13 13 13 12 12 12 11 11 11 11 11 11 10 10 10 10 10 10 10 10 10 9 9 9 9 9 9 8 8 8 8 8
15 15 15 15 14 14 14 14 14 13 13 13 12 12 12 12 11 11 11 10 10 10 10 10 10 10 9 9 9 9 9 9 9 9 9 9 8 8 8 8 7 7 7
14 14 14 14 14 14 14 13 13 13 12 12 12 11 11 11 10 10 10 10 9 9 9 9 9 9 9 9 9 9 9 9 8 8 8 8 8 8 7 7 7 7 7
Wind_Speed
12 12 12 12 11 11 11 11 11 10 9 7 7 7 7 6 6 7 8 9 9 9 9 8 7 8 7 6 7 6 6 6 4 4 4 5 6 6 5 6 6 7 8
12 12 12 12 12 12 12 12 12 11 10 8 7 5 5 5 6 6 8 10 10 10 10 9 8 8 6 7 7 7 6 6 6 5 4 4 5 6 7 6 7 7 7
12 13 13 12 12 12 12 11 12 11 11 10 8 6 5 5 6 7 7 9 11 11 11 11 10 8 8 8 8 8 9 7 6 6 5 4 4 3 5 7 7 7 6
12 12 12 12 12 11 11 11 11 11 11 10 9 9 8 8 7 7 6 8 10 11 11 12 11 9 9 8 9 9 8 8 7 6 6 6 4 4 3 6 7 8 8
11 11 11 11 10 10 10 10 10 10 10 10 10 9 9 7 6 6 6 7 8 9 11 11 10 10 9 9 9 7 9 8 8 7 6 6 6 7 6 5 4 6 7
10 10 9 9 9 8 9 9 10 10 10 10 10 10 10 9 8 7 7 7 6 7 9 10 10 10 9 9 9 9 10 9 8 7 7 6 6 7 7 7 6 5 5
10 10 10 10 9 8 8 7 8 8 9 10 10 10 10 10 9 8 7 6 6 6 8 8 8 8 9 9 9 9 10 10 9 9 8 8 8 7 7 6 6 6 5
10 10 10 9 8 8 8 7 7 7 8 8 8 8 8 6 6 7 6 6 6 6 6 7 8 9 9 9 9 8 9 9 9 10 9 8 8 7 7 7 7 7 6
10 10 10 9 8 8 7 7 7 6 6 6 6 5 6 5 5 5 6 5 5 5 6 7 7 8 8 9 9 8 9 8 9 9 9 9 8 7 8 7 7 7 7
10 10 9 9 8 7 7 6 6 6 5 5 5 4 4 4 3 3 3 4 4 5 5 6 6 6 7 7 7 7 7 8 7 6 7 8 7 6 7 7 7 7 7
10 10 9 9 8 8 7 7 6 5 5 4 4 3 2 2 1 1 2 2 3 3 3 3 3 4 5 5 5 6 6 7 7 7 7 8 7 6 5 5 6 6 6
9 10 10 9 8 8 8 7 6 6 5 5 5 4 3 2 1 1 1 0 1 1 2 2 2 2 3 4 4 5 5 6 6 6 6 6 5 5 5 4 5 5 5
10 10 9 9 8 8 8 7 7 6 6 6 6 5 4 3 2 2 2 2 2 1 1 1 1 2 2 2 3 3 4 4 5 4 5 5 4 4 3 3 4 4 4
10 10 10 9 9 9 8 8 7 7 7 7 6 6 5 4 4 4 3 3 2 2 2 2 2 2 1 1 1 1 1 2 1 1 2 2 2 3 3 3 3 3 3
12 11 11 10 9 9 8 8 8 7 7 7 7 6 6 5 5 5 4 4 3 3 3 3 3 3 3 2 1 1 1 1 0 0 0 1 1 2 1 1 2 2 2
12 12 11 11 10 9 8 8 8 8 7 8 7 6 6 5 5 5 5 4 4 4 4 4 4 5 4 7 7 3 2 2 2 1 2 2 3 5 5 5 5 4 1
12 12 11 10 9 9 9 8 8 8 8 7 7 6 6 5 5 5 5 5 5 5 5 6 6 6 8 9 8 7 5 4 4 4 3 3 4 4 5 6 8 9 10
12 12 11 11 10 9 9 9 9 8 8 7 7 6 6 6 5 6 6 6 5 6 6 7 7 7 7 8 7 6 6 7 6 5 5 5 5 5 6 6 7 8 8
11 11 11 11 10 9 9 10 9 9 8 7 7 6 6 6 6 6 6 5 6 6 6 7 7 7 7 8 6 5 6 7 8 8 8 6 7 8 7 8 8 8 8
11 11 11 11 10 9 10 10 10 9 8 7 7 6 6 6 6 6 5 5 6 7 7 8 8 8 8 9 8 5 6 7 7 8 9 12 10 10 8 7 7 8 6
12 12 12 10 9 9 10 10 10 9 8 8 7 7 7 7 6 6 5 6 6 7 8 9 9 10 10 11 12 9 5 6 7 8 8 9 12 12 11 8 7 5 4
12 12 11 10 9 9 9 10 10 9 9 9 9 8 7 6 6 7 6 6 6 7 7 8 9 9 9 10 11 12 10 8 8 8 8 9 11 12 11 9 7 4 2
11 11 11 11 9 8 9 10 10 9 10 10 9 9 8 8 7 7 7 6 5 5 6 6 7 7 7 8 12 13 13 12 10 10 12 10 8 9 10 10 7 5 6
10 10 11 11 9 8 9 10 10 10 10 10 9 9 8 9 8 7 6 6 5 5 5 6 6 6 6 6 6 7 8 10 10 10 10 10 10 9 8 6 7 7 7
9 9 10 10 10 9 10 10 10 11 11 11 10 9 9 9 9 9 8 8 8 6 5 6 6 6 7 7 9 7 7 7 6 6 7 7 7 7 8 8 7 7 6
9 9 10 10 10 10 10 9 9 10 11 10 9 8 8 8 9 10 11 17 13 15 15 13 9 9 9 9 11 12 11 9 5 5 8 7 7 7 7 7 6 7 7
Wind_Direction
184 184 189 190 189 191 193 195 198 194 196 201 208 211 216 218 219 220 215 214 217 216 222 230 211 222 219 219 217 212 209 219 217 231 233 234 231 226 218 222 228 218 218
183 183 190 193 195 195 195 195 200 196 199 202 208 215 220 226 225 225 215 220 220 222 221 226 227 221 222 218 222 219 230 225 212 228 238 237 224 225 224 216 220 226 218
187 186 192 196 196 195 196 199 200 197 201 203 205 207 208 223 222 222 220 220 222 224 231 228 230 225 227 219 220 219 224 230 226 227 239 255 250 237 214 220 223 223 226
191 190 191 194 197 198 195 197 197 199 199 201 208 210 218 222 223 222 224 223 224 228 229 230 230 228 229 224 225 221 225 228 231 225 233 254 286 266 244 219 216 219 224
191 189 191 192 194 194 193 194 195 200 201 204 207 216 229 233 233 228 231 229 227 230 231 230 230 226 230 230 232 228 229 228 234 237 233 236 240 245 259 258 236 224 225
182 180 180 177 180 181 186 190 191 197 200 204 210 218 230 236 238 237 237 228 226 230 229 229 228 228 229 228 228 228 228 234 239 245 245 240 241 242 246 253 249 241 234
172 171 172 171 170 175 179 181 186 193 198 203 210 218 228 232 235 240 240 238 233 231 226 229 228 231 231 231 229 228 236 233 234 238 242 244 247 253 258 261 263 264 254
166 167 168 168 166 169 172 174 180 184 189 196 205 214 223 229 235 241 247 242 246 244 238 231 230 233 234 235 231 233 234 232 233 239 244 249 247 246 247 254 260 263 259
162 162 161 161 160 163 169 173 173 174 179 184 194 205 213 225 234 240 244 248 249 250 244 240 236 235 235 238 235 233 235 234 233 237 239 245 248 248 248 248 249 253 261
157 155 154 154 153 154 158 160 160 160 166 173 183 186 194 208 221 243 249 256 262 266 259 248 244 241 241 239 237 236 235 232 234 238 242 243 245 241 240 241 244 246 257
153 149 147 145 144 143 144 145 142 141 142 146 150 145 149 159 183 220 251 258 267 268 265 258 253 248 245 241 236 239 238 235 237 239 241 244 250 246 246 244 247 248 248
142 140 139 138 140 140 139 137 137 133 128 128 126 122 115 117 130 99 3 351 314 305 292 276 258 255 247 243 240 241 242 240 240 241 244 246 238 234 248 249 250 254 261
141 139 140 142 140 136 134 133 134 128 128 127 119 112 106 101 91 72 52 51 49 27 360 337 310 296 281 263 255 246 242 240 243 241 242 246 241 239 237 241 248 250 253
146 144 141 139 135 131 131 130 125 125 125 121 118 111 105 99 90 83 71 59 58 53 39 23 14 355 339 310 273 236 231 229 240 259 251 261 256 245 241 236 244 250 249
154 151 146 140 137 134 134 129 124 122 122 119 113 108 106 101 95 88 81 71 64 61 56 42 31 26 16 1 6 132 131 144 124 333 341 20 49 48 3 263 249 243 242
158 153 148 143 140 139 137 132 128 124 121 115 110 106 105 103 98 93 87 80 73 66 62 56 48 45 41 40 39 46 74 75 75 59 48 50 71 81 86 72 61 48 34
159 154 150 146 142 142 140 135 131 127 122 115 111 108 105 98 94 92 86 80 75 73 69 64 62 59 51 49 52 58 74 70 64 64 64 59 63 78 94 92 85 68 57
156 152 149 143 140 140 137 132 130 127 121 115 111 109 106 100 91 83 78 80 79 77 72 67 67 67 57 47 51 63 81 75 64 61 63 70 70 74 88 92 82 70 58
149 147 146 140 136 136 136 135 131 126 120 113 108 104 104 102 95 87 79 78 80 79 74 70 66 66 58 42 42 59 85 80 69 65 62 70 80 67 77 93 91 82 74
140 139 137 133 132 133 135 133 129 123 117 112 106 99 96 96 93 87 85 85 84 84 80 73 65 63 59 44 36 43 90 87 83 75 68 64 70 64 61 89 95 92 85
136 134 133 131 130 133 133 130 126 121 118 115 108 100 96 94 94 91 86 88 90 88 82 79 71 63 57 54 40 29 71 85 85 78 71 64 63 62 57 65 78 78 83
135 135 132 127 127 133 133 129 124 123 121 115 109 102 97 93 93 93 90 90 93 96 92 87 77 66 58 53 54 48 47 56 82 80 79 76 72 69 62 64 55 33 39
135 134 132 128 128 133 135 128 124 125 121 114 108 103 96 89 87 87 88 91 91 93 93 91 85 78 74 69 66 65 60 59 75 81 81 81 87 91 77 65 40 39 59
132 133 133 132 128 127 127 126 128 127 122 116 114 111 104 97 88 82 78 74 71 82 89 90 91 88 79 68 73 86 90 95 93 94 97 92 75 76 77 73 57 53 50
131 134 132 129 128 127 125 128 132 133 128 124 122 117 110 104 93 79 59 67 60 53 67 79 82 83 80 52 40 55 69 75 79 91 88 76 72 66 63 60 55 51 48
132 132 132 132 132 131 128 130 136 138 136 132 130 127 123 118 114 108 89 60 63 61 57 50 61 76 74 80 73 69 66 60 44 74 82 74 68 65 63 62 58 54 47
Height
1536 1538 1540 1542 1544 1546 1548 1550 1552 1554 1555 1557 1559 1561 1562 1563 1564 1565 1566 1568 1569 1571 1572 1575 1576 1577 1579 1580 1581 1582 1583 1584 1585 1586 1586 1586 1586 1586 1586 1587 1588 1588 1589
1533 1535 1537 1540 1542 1544 1546 1548 1550 1552 1553 1555 1557 1559 1560 1561 1562 1563 1564 1565 1567 1568 1571 1572 1574 1575 1576 1577 1579 1579 1581 1582 1583 1584 1584 1584 1585 1584 1584 1584 1585 1586 1586
1530 1532 1535 1537 1539 1541 1543 1545 1547 1549 1550 1552 1555 1556 1557 1558 1559 1560 1561 1562 1564 1566 1567 1569 1571 1572 1574 1575 1576 1577 1578 1579 1580 1581 1582 1582 1581 1581 1582 1582 1583 1583 1584
1527 1530 1532 1534 1536 1538 1540 1542 1544 1546 1548 1550 1552 1553 1554 1555 1556 1557 1559 1560 1561 1563 1564 1566 1567 1569 1571 1572 1573 1574 1575 1576 1577 1578 1578 1580 1580 1580 1579 1580 1580 1580 1580
1524 1527 1529 1531 1534 1536 1537 1539 1541 1543 1545 1547 1548 1550 1551 1553 1554 1555 1556 1557 1558 1560 1561 1563 1564 1565 1567 1568 1570 1571 1572 1573 1574 1575 1576 1576 1577 1578 1578 1577 1578 1578 1578
1521 1524 1527 1529 1531 1533 1535 1536 1537 1539 1541 1543 1545 1547 1548 1550 1551 1552 1553 1554 1555 1556 1558 1559 1560 1561 1563 1564 1565 1566 1568 1569 1570 1571 1572 1573 1574 1574 1575 1575 1574 1575 1575
1519 1522 1525 1527 1529 1530 1532 1534 1535 1536 1538 1540 1542 1544 1546 1547 1548 1549 1550 1551 1552 1553 1554 1556 1556 1558 1559 1560 1561 1562 1564 1565 1566 1567 1568 1569 1570 1571 1571 1572 1571 1571 1572
1517 1520 1523 1525 1527 1529 1531 1532 1533 1534 1536 1538 1540 1542 1543 1545 1545 1546 1547 1548 1549 1550 1551 1552 1553 1554 1555 1556 1557 1558 1559 1560 1561 1563 1564 1565 1566 1567 1568 1568 1568 1568 1568
1516 1519 1522 1525 1527 1528 1530 1531 1532 1534 1535 1536 1538 1540 1541 1542 1543 1543 1544 1545 1545 1546 1547 1548 1549 1550 1551 1551 1553 1553 1554 1556 1557 1558 1559 1560 1561 1562 1563 1564 1565 1566 1565
1516 1519 1522 1524 1526 1528 1529 1530 1531 1533 1534 1536 1537 1538 1539 1540 1540 1541 1541 1542 1542 1543 1543 1544 1545 1546 1547 1547 1548 1549 1550 1551 1552 1553 1554 1554 1556 1557 1558 1559 1560 1561 1561
1516 1519 1521 1523 1525 1527 1528 1529 1531 1532 1533 1535 1536 1537 1538 1538 1539 1539 1539 1540 1540 1540 1540 1541 1541 1542 1542 1543 1544 1545 1546 1547 1548 1548 1549 1550 1551 1552 1553 1554 1555 1556 1557
1516 1519 1521 1523 1525 1527 1528 1529 1531 1532 1533 1534 1535 1536 1537 1537 1538 1538 1538 1538 1538 1538 1538 1538 1538 1538 1539 1540 1540 1541 1542 1542 1543 1544 1545 1546 1547 1547 1548 1549 1551 1551 1552
1516 1518 1521 1523 1525 1527 1528 1529 1531 1532 1533 1534 1535 1536 1536 1537 1537 1537 1537 1537 1537 1537 1537 1537 1537 1536 1536 1537 1537 1537 1538 1539 1540 1540 1541 1542 1543 1543 1544 1545 1546 1547 1548
1516 1518 1521 1523 1525 1526 1528 1530 1531 1532 1534 1534 1535 1535 1536 1536 1537 1537 1537 1537 1536 1536 1536 1535 1535 1535 1534 1534 1534 1534 1535 1535 1536 1537 1537 1538 1538 1539 1540 1542 1543 1543 1544
1515 1518 1520 1523 1525 1526 1528 1530 1531 1533 1534 1535 1535 1535 1536 1536 1537 1537 1537 1536 1536 1535 1535 1534 1534 1533 1532 1532 1532 1532 1532 1532 1533 1534 1534 1534 1534 1535 1536 1538 1539 1540 1541
1514 1517 1520 1522 1524 1526 1528 1530 1531 1533 1534 1535 1536 1536 1537 1537 1537 1537 1537 1536 1535 1535 1534 1534 1533 1532 1531 1531 1530 1530 1530 1530 1531 1531 1531 1532 1532 1531 1533 1534 1536 1537 1538
1513 1516 1519 1521 1524 1526 1528 1530 1531 1533 1534 1535 1536 1537 1537 1537 1537 1537 1536 1536 1535 1535 1534 1534 1532 1531 1531 1530 1530 1529 1529 1529 1530 1530 1530 1531 1530 1530 1531 1533 1534 1535 1536
1512 1515 1518 1521 1523 1526 1528 1529 1531 1533 1534 1535 1536 1537 1537 1537 1537 1537 1537 1537 1536 1535 1535 1534 1533 1532 1531 1531 1530 1530 1529 1529 1530 1530 1530 1531 1531 1531 1532 1533 1534 1535 1535
1511 1514 1517 1520 1522 1525 1527 1529 1531 1533 1534 1535 1536 1537 1537 1537 1537 1537 1537 1537 1537 1536 1536 1535 1534 1533 1532 1532 1531 1531 1531 1530 1531 1531 1531 1531 1532 1532 1533 1534 1534 1535 1535
1510 1513 1516 1519 1521 1524 1527 1529 1530 1532 1534 1535 1536 1537 1537 1537 1537 1538 1538 1538 1538 1537 1537 1536 1535 1534 1534 1533 1533 1533 1533 1533 1532 1533 1533 1533 1533 1534 1534 1535 1535 1536 1536
1509 1512 1516 1518 1521 1524 1526 1528 1530 1532 1533 1535 1536 1537 1537 1538 1538 1538 1538 1539 1539 1539 1538 1537 1537 1536 1536 1535 1535 1535 1535 1535 1535 1535 1535 1535 1536 1536 1536 1536 1537 1537 1538
1508 1512 1515 1518 1521 1523 1526 1528 1529 1531 1533 1534 1536 1537 1537 1538 1538 1539 1539 1539 1540 1540 1540 1540 1539 1539 1538 1538 1537 1537 1536 1537 1537 1537 1538 1538 1538 1538 1538 1538 1538 1539 1540
1508 1512 1514 1517 1520 1523 1526 1527 1529 1531 1532 1534 1535 1537 1537 1538 1539 1539 1540 1541 1541 1542 1542 1542 1542 1541 1541 1540 1540 1539 1539 1539 1538 1539 1539 1540 1540 1540 1540 1540 1540 1541 1542
1509 1512 1515 1517 1520 1523 1525 1527 1529 1530 1532 1534 1535 1537 1538 1539 1539 1541 1542 1542 1542 1543 1543 1543 1544 1544 1543 1543 1543 1542 1542 1542 1542 1542 1542 1542 1543 1543 1543 1543 1543 1543 1543
1509 1512 1515 1517 1520 1522 1524 1526 1529 1531 1533 1534 1536 1537 1539 1540 1540 1541 1541 1542 1542 1542 1544 1545 1545 1546 1545 1545 1544 1544 1544 1545 1545 1545 1546 1546 1546 1546 1546 1546 1545 1545 1545
1509 1512 1515 1517 1520 1522 1524 1526 1528 1531 1533 1535 1536 1538 1540 1541 1542 1542 1543 1543 1544 1545 1545 1546 1547 1547 1547 1547 1547 1547 1547 1546 1547 1548 1548 1548 1548 1548 1548 1548 1548 1547 1547